�������l�o���
Date,Time,MP-1(��Sv/h),MP-2(��Sv/h),MP-3(��Sv/h),MP-4(��Sv/h),MP-5(��Sv/h),MP-6(��Sv/h),MP-7(��Sv/h),MP-8(��Sv/h),����,����(m/s),���J
2017/10/08,00:00,0.913,1.440,0.938,1.732,1.189,0.498,0.920,0.848,�k,2.6,��
2017/10/08,00:10,0.913,1.440,0.938,1.728,1.191,0.499,0.919,0.847,�k,2.6,��
2017/10/08,00:20,0.913,1.439,0.937,1.732,1.190,0.500,0.919,0.847,�k,2.6,��
2017/10/08,00:30,0.913,1.439,0.937,1.728,1.191,0.500,0.918,0.847,�k,1.7,��
2017/10/08,00:40,0.910,1.440,0.937,1.730,1.187,0.501,0.918,0.848,�k,2.8,��
2017/10/08,00:50,0.912,1.441,0.936,1.730,1.188,0.499,0.918,0.849,�k,3.9,��
2017/10/08,01:00,0.913,1.440,0.936,1.730,1.190,0.500,0.918,0.848,�k,4.1,��
2017/10/08,01:10,0.912,1.440,0.937,1.731,1.188,0.499,0.921,0.849,�k,4.7,��
2017/10/08,01:20,0.914,1.441,0.938,1.731,1.190,0.498,0.917,0.847,�k,3.8,��
2017/10/08,01:30,0.913,1.440,0.937,1.733,1.188,0.501,0.918,0.847,�k�k��,3.5,��
2017/10/08,01:40,0.914,1.441,0.937,1.731,1.188,0.501,0.918,0.848,�k�k��,3.4,��
2017/10/08,01:50,0.913,1.441,0.939,1.732,1.189,0.500,0.918,0.847,�k�k��,3.8,��
2017/10/08,02:00,0.915,1.441,0.939,1.731,1.190,0.499,0.917,0.847,�k�k��,3.9,��
2017/10/08,02:10,0.911,1.442,0.936,1.730,1.192,0.500,0.919,0.850,�k�k��,3.5,��
2017/10/08,02:20,0.913,1.442,0.935,1.732,1.189,0.499,0.918,0.847,�k�k��,3.1,��
2017/10/08,02:30,0.914,1.442,0.936,1.733,1.190,0.499,0.918,0.848,�k�k��,3.0,��
2017/10/08,02:40,0.914,1.441,0.936,1.731,1.188,0.500,0.917,0.848,�k�k��,2.5,��
2017/10/08,02:50,0.913,1.440,0.938,1.731,1.188,0.499,0.916,0.849,�k�k��,2.3,��
2017/10/08,03:00,0.912,1.440,0.935,1.731,1.188,0.500,0.918,0.847,�k�k��,2.0,��
2017/10/08,03:10,0.913,1.441,0.936,1.733,1.191,0.500,0.919,0.849,�k��,2.6,��
2017/10/08,03:20,0.912,1.441,0.936,1.732,1.188,0.501,0.918,0.848,�k��,2.6,��
2017/10/08,03:30,0.913,1.442,0.938,1.731,1.192,0.501,0.917,0.849,�k��,2.3,��
2017/10/08,03:40,0.913,1.438,0.935,1.731,1.190,0.499,0.918,0.848,�k��,2.3,��
2017/10/08,03:50,0.909,1.442,0.940,1.734,1.188,0.501,0.920,0.849,�k�k��,2.5,��
2017/10/08,04:00,0.913,1.442,0.937,1.731,1.190,0.500,0.918,0.847,�k�k��,2.3,��
2017/10/08,04:10,0.914,1.439,0.935,1.732,1.187,0.500,0.919,0.847,�k�k��,2.5,��
2017/10/08,04:20,0.913,1.439,0.938,1.731,1.188,0.500,0.917,0.848,�k�k��,1.4,��
2017/10/08,04:30,0.911,1.441,0.935,1.733,1.186,0.499,0.919,0.848,-,CALM,��
2017/10/08,04:40,0.912,1.440,0.937,1.734,1.188,0.500,0.919,0.847,-,CALM,��
2017/10/08,04:50,0.913,1.440,0.938,1.733,1.189,0.499,0.918,0.847,�k�k��,1.1,��
2017/10/08,05:00,0.911,1.440,0.937,1.732,1.188,0.500,0.917,0.848,�k��,1.7,��
2017/10/08,05:10,0.910,1.441,0.938,1.732,1.192,0.500,0.916,0.847,�k��,4.5,��
2017/10/08,05:20,0.913,1.441,0.938,1.733,1.188,0.499,0.919,0.847,�k�k��,4.9,��
2017/10/08,05:30,0.911,1.442,0.936,1.730,1.188,0.499,0.918,0.849,�k,4.8,��
2017/10/08,05:40,0.912,1.441,0.937,1.731,1.189,0.500,0.918,0.847,�k,3.7,��
2017/10/08,05:50,0.910,1.441,0.935,1.732,1.188,0.501,0.917,0.846,�k,3.6,��
2017/10/08,06:00,0.910,1.438,0.936,1.734,1.188,0.499,0.918,0.848,�k�k��,3.6,��
2017/10/08,06:10,0.913,1.441,0.940,1.732,1.189,0.499,0.921,0.847,�k�k��,4.1,��
2017/10/08,06:20,0.914,1.440,0.937,1.732,1.191,0.499,0.917,0.847,�k,4.6,��
2017/10/08,06:30,0.912,1.441,0.939,1.731,1.189,0.501,0.921,0.849,�k,5.4,��
2017/10/08,06:40,0.911,1.440,0.937,1.736,1.188,0.500,0.917,0.848,�k�k��,5.2,��
2017/10/08,06:50,0.913,1.441,0.936,1.733,1.191,0.499,0.919,0.849,�k�k��,6.2,��
2017/10/08,07:00,0.913,1.443,0.937,1.734,1.191,0.500,0.920,0.849,�k�k��,5.0,��
2017/10/08,07:10,0.912,1.441,0.938,1.733,1.191,0.499,0.918,0.848,�k�k��,4.9,��
2017/10/08,07:20,0.911,1.443,0.936,1.732,1.191,0.499,0.917,0.849,�k�k��,5.1,��
2017/10/08,07:30,0.912,1.442,0.938,1.734,1.191,0.499,0.917,0.848,�k�k��,3.7,��
2017/10/08,07:40,0.910,1.442,0.937,1.736,1.191,0.500,0.916,0.848,�k�k��,2.5,��
2017/10/08,07:50,0.911,1.441,0.937,1.734,1.191,0.500,0.917,0.850,�k�k��,2.3,��
2017/10/08,08:00,0.910,1.442,0.937,1.735,1.191,0.498,0.915,0.847,�k�k��,4.2,��
2017/10/08,08:10,0.909,1.440,0.937,1.732,1.188,0.498,0.915,0.848,�k�k��,4.1,��
2017/10/08,08:20,0.909,1.442,0.937,1.732,1.189,0.500,0.916,0.847,�k�k��,4.1,��
2017/10/08,08:30,0.909,1.439,0.937,1.735,1.190,0.499,0.917,0.846,�k�k��,3.5,��
2017/10/08,08:40,0.911,1.441,0.936,1.732,1.189,0.497,0.917,0.846,�k�k��,3.9,��
2017/10/08,08:50,0.911,1.445,0.937,1.735,1.189,0.498,0.918,0.847,�k,3.8,��
2017/10/08,09:00,0.911,1.443,0.936,1.736,1.191,0.498,0.917,0.847,�k,3.1,��
2017/10/08,09:10,0.910,1.443,0.937,1.737,1.191,0.498,0.917,0.848,�k,3.2,��
2017/10/08,09:20,0.914,1.445,0.938,1.737,1.192,0.499,0.917,0.849,�k�k��,3.5,��
2017/10/08,09:30,0.912,1.445,0.939,1.736,1.191,0.498,0.916,0.847,�k�k��,3.8,��
2017/10/08,09:40,0.913,1.446,0.937,1.737,1.191,0.497,0.918,0.848,�k,3.8,��
2017/10/08,09:50,0.913,1.444,0.937,1.738,1.192,0.499,0.921,0.846,�k,5.0,��
2017/10/08,10:00,0.914,1.446,0.937,1.736,1.192,0.498,0.918,0.845,�k�k��,4.6,��
2017/10/08,10:10,0.914,1.445,0.938,1.738,1.193,0.499,0.920,0.846,�k�k��,4.8,��
2017/10/08,10:20,0.915,1.447,0.940,1.739,1.194,0.498,0.918,0.847,�k�k��,4.3,��
2017/10/08,10:30,0.916,1.449,0.937,1.739,1.194,0.498,0.919,0.846,�k�k��,3.7,��
2017/10/08,10:40,0.917,1.449,0.939,1.741,1.194,0.500,0.921,0.847,�k�k��,4.3,��
2017/10/08,10:50,0.917,1.448,0.940,1.739,1.194,0.499,0.920,0.847,�k,3.9,��
2017/10/08,11:00,0.919,1.453,0.939,1.741,1.197,0.499,0.919,0.847,�k�k��,3.4,��
2017/10/08,11:10,0.917,1.452,0.939,1.739,1.198,0.498,0.921,0.847,�k�k��,3.5,��
2017/10/08,11:20,0.918,1.451,0.940,1.744,1.200,0.500,0.923,0.848,�k�k��,4.0,��
2017/10/08,11:30,0.919,1.452,0.941,1.738,1.198,0.500,0.922,0.849,�k��,4.0,��
2017/10/08,11:40,0.919,1.454,0.940,1.740,1.198,0.498,0.921,0.849,�k�k��,3.8,��
2017/10/08,11:50,0.920,1.452,0.941,1.740,1.201,0.499,0.921,0.846,�k�k��,3.1,��
2017/10/08,12:00,0.919,1.454,0.941,1.743,1.200,0.500,0.922,0.849,�k,2.8,��
2017/10/08,12:10,0.920,1.455,0.942,1.742,1.204,0.500,0.923,0.848,�k�k��,2.3,��
2017/10/08,12:20,0.920,1.456,0.943,1.742,1.202,0.498,0.922,0.848,�k�k��,2.8,��
2017/10/08,12:30,0.921,1.456,0.943,1.744,1.203,0.500,0.922,0.848,�k��,3.3,��
2017/10/08,12:40,0.919,1.457,0.944,1.742,1.201,0.500,0.921,0.850,�k�k��,2.5,��
2017/10/08,12:50,0.920,1.455,0.944,1.745,1.201,0.500,0.921,0.848,�k��,2.5,��
2017/10/08,13:00,0.919,1.457,0.944,1.743,1.203,0.499,0.922,0.851,�k��,2.3,��
2017/10/08,13:10,0.919,1.457,0.943,1.745,1.203,0.501,0.922,0.848,���k��,2.3,��
2017/10/08,13:20,0.920,1.456,0.943,1.745,1.201,0.499,0.921,0.848,�k��,2.3,��
2017/10/08,13:30,0.919,1.457,0.943,1.743,1.205,0.500,0.921,0.849,���k��,1.7,��
2017/10/08,13:40,0.920,1.457,0.941,1.745,1.205,0.499,0.922,0.848,�k��,2.0,��
2017/10/08,13:50,0.920,1.457,0.941,1.745,1.204,0.500,0.922,0.850,���k��,1.7,��
2017/10/08,14:00,0.919,1.458,0.943,1.745,1.206,0.499,0.922,0.850,�k��,2.2,��
2017/10/08,14:10,0.923,1.456,0.942,1.744,1.204,0.500,0.921,0.849,���k��,2.3,��
2017/10/08,14:20,0.921,1.458,0.941,1.745,1.203,0.499,0.923,0.849,���k��,2.3,��
2017/10/08,14:30,0.920,1.459,0.943,1.746,1.203,0.501,0.921,0.846,��,2.0,��
2017/10/08,14:40,0.922,1.458,0.942,1.746,1.204,0.500,0.924,0.849,��,2.0,��
2017/10/08,14:50,0.919,1.457,0.942,1.748,1.206,0.501,0.921,0.848,���쓌,2.0,��
2017/10/08,15:00,0.919,1.463,0.945,1.746,1.206,0.501,0.921,0.848,���쓌,2.6,��
2017/10/08,15:10,0.921,1.462,0.941,1.745,1.204,0.501,0.922,0.850,��쓌,2.0,��
2017/10/08,15:20,0.920,1.461,0.942,1.746,1.205,0.501,0.923,0.850,���쓌,1.2,��
2017/10/08,15:30,0.920,1.460,0.942,1.749,1.206,0.501,0.921,0.850,��쓌,2.0,��
2017/10/08,15:40,0.922,1.459,0.942,1.745,1.203,0.502,0.921,0.851,��,1.5,��
2017/10/08,15:50,0.921,1.459,0.944,1.747,1.204,0.502,0.922,0.849,��쓌,1.2,��
2017/10/08,16:00,0.919,1.460,0.943,1.747,1.203,0.501,0.923,0.850,��,1.7,��
2017/10/08,16:10,0.921,1.458,0.946,1.746,1.204,0.500,0.921,0.850,�쓌,2.0,��
2017/10/08,16:20,0.920,1.458,0.945,1.745,1.206,0.500,0.922,0.851,��쓌,2.8,��
2017/10/08,16:30,0.920,1.460,0.945,1.747,1.204,0.499,0.921,0.851,��쓌,2.6,��
2017/10/08,16:40,0.921,1.460,0.944,1.748,1.208,0.502,0.922,0.852,��쓌,2.5,��
2017/10/08,16:50,0.921,1.462,0.942,1.748,1.205,0.502,0.922,0.853,��쓌,2.2,��
2017/10/08,17:00,0.921,1.463,0.944,1.745,1.206,0.501,0.924,0.852,��,1.4,��
2017/10/08,17:10,0.920,1.463,0.944,1.747,1.206,0.502,0.924,0.852,��쓌,1.4,��
2017/10/08,17:20,0.920,1.463,0.946,1.748,1.210,0.503,0.923,0.851,��,1.5,��
2017/10/08,17:30,0.921,1.459,0.945,1.746,1.209,0.501,0.922,0.851,��,1.7,��
2017/10/08,17:40,0.923,1.462,0.946,1.746,1.209,0.503,0.924,0.850,��,0.9,��
2017/10/08,17:50,0.922,1.462,0.946,1.745,1.209,0.503,0.922,0.851,��쐼,0.9,��
2017/10/08,18:00,0.923,1.463,0.946,1.746,1.210,0.503,0.926,0.851,��,1.4,��
2017/10/08,18:10,0.922,1.462,0.947,1.743,1.209,0.503,0.923,0.849,��,1.4,��
2017/10/08,18:20,0.922,1.463,0.947,1.746,1.209,0.505,0.923,0.851,��쓌,1.7,��
2017/10/08,18:30,0.922,1.461,0.945,1.743,1.206,0.504,0.924,0.851,��쓌,0.9,��
2017/10/08,18:40,0.923,1.459,0.945,1.747,1.206,0.502,0.924,0.850,��쓌,1.2,��
2017/10/08,18:50,0.924,1.463,0.945,1.744,1.206,0.503,0.923,0.851,��쓌,1.2,��
2017/10/08,19:00,0.923,1.461,0.946,1.747,1.206,0.501,0.923,0.852,��,1.4,��
2017/10/08,19:10,0.923,1.461,0.946,1.746,1.208,0.503,0.922,0.851,��쓌,0.8,��
2017/10/08,19:20,0.921,1.461,0.945,1.743,1.211,0.502,0.923,0.850,-,CALM,��
2017/10/08,19:30,0.921,1.459,0.945,1.747,1.206,0.501,0.923,0.850,-,CALM,��
2017/10/08,19:40,0.921,1.458,0.944,1.746,1.207,0.501,0.923,0.851,-,CALM,��
2017/10/08,19:50,0.921,1.460,0.946,1.743,1.206,0.502,0.923,0.851,�k,0.6,��
2017/10/08,20:00,0.921,1.462,0.945,1.745,1.208,0.502,0.923,0.851,��쐼,1.1,��
2017/10/08,20:10,0.920,1.458,0.946,1.745,1.209,0.502,0.925,0.850,��쐼,1.4,��
2017/10/08,20:20,0.919,1.460,0.946,1.744,1.206,0.502,0.924,0.851,��쐼,1.7,��
2017/10/08,20:30,0.921,1.461,0.947,1.746,1.207,0.501,0.923,0.852,��쐼,1.2,��
2017/10/08,20:40,0.921,1.459,0.944,1.744,1.206,0.500,0.922,0.850,�쐼,0.9,��
2017/10/08,20:50,0.922,1.459,0.945,1.743,1.205,0.500,0.923,0.850,��쐼,1.1,��
2017/10/08,21:00,0.922,1.459,0.946,1.745,1.206,0.502,0.924,0.852,��쐼,0.6,��
2017/10/08,21:10,0.921,1.461,0.944,1.746,1.208,0.503,0.923,0.850,��,0.6,��
2017/10/08,21:20,0.922,1.459,0.945,1.745,1.207,0.501,0.921,0.850,-,CALM,��
2017/10/08,21:30,0.921,1.460,0.944,1.743,1.206,0.502,0.921,0.849,��,0.6,��
2017/10/08,21:40,0.921,1.463,0.946,1.744,1.204,0.501,0.923,0.851,-,CALM,��
2017/10/08,21:50,0.921,1.461,0.946,1.742,1.209,0.503,0.924,0.851,-,CALM,��
2017/10/08,22:00,0.921,1.459,0.946,1.741,1.208,0.502,0.922,0.851,-,CALM,��
2017/10/08,22:10,0.919,1.461,0.946,1.747,1.205,0.503,0.920,0.850,-,CALM,��
2017/10/08,22:20,0.920,1.458,0.945,1.743,1.207,0.502,0.924,0.850,��쓌,0.6,��
2017/10/08,22:30,0.919,1.458,0.945,1.746,1.205,0.501,0.925,0.849,�쓌,0.9,��
2017/10/08,22:40,0.922,1.459,0.945,1.744,1.207,0.502,0.924,0.851,�쓌,0.9,��
2017/10/08,22:50,0.920,1.459,0.944,1.746,1.207,0.502,0.922,0.849,-,CALM,��
2017/10/08,23:00,0.920,1.458,0.944,1.744,1.207,0.502,0.922,0.849,-,CALM,��
2017/10/08,23:10,0.920,1.461,0.945,1.748,1.204,0.502,0.923,0.849,-,CALM,��
2017/10/08,23:20,0.919,1.458,0.946,1.743,1.207,0.503,0.922,0.851,-,CALM,��
2017/10/08,23:30,0.918,1.458,0.945,1.746,1.207,0.502,0.923,0.852,-,CALM,��
2017/10/08,23:40,0.920,1.460,0.945,1.745,1.207,0.501,0.922,0.850,���k��,0.8,��
2017/10/08,23:50,0.920,1.459,0.944,1.745,1.205,0.502,0.923,0.851,���k��,1.2,��
